Location: ?????????
(41.2393°N, 22.9479°E)
Time: 05:07:26
(UTC+00:00)

Cosmos 2278 Rocket - Pass Details

Date: 17 November 2025
Orbit: 841 x 843 km, 71.0° (Epoch: 09 December)

Event Time Altitude Azimuth Distance (km) Brightness Sun altitude
Rises 16:05:45 0° 201° (SSW) 3,382 5.9 -11.1°
Reaches altitude 10° 16:08:10 10° 201° (SSW) 2,451 5.1 -11.6°
Maximum altitude 16:13:48 89° 116° (ESE) 847 2.2 -12.6°
Drops below altitude 10° 16:19:29 10° 24° (NNE) 2,466 4.3 -13.6°
Enters shadow 16:20:58 - 24° (NNE) 3,033 4.7 -13.9°
